Showing default

LARETS, 27944

Orbit data source: Space-Track

LARETS, 27944 is a payload satellite owned by NII KP (CIS) in SSO that was launched on Sat, 27 Sep 2003 UTC via a KOSMOS 11K65M launch vehicle from the Plesetsk Missile And Space Complex (PKMTR). Payload-class satellites include a variety of spacecraft equipped with specific instruments for various scientific and technological missions. These include communications satellites like Starlink; space stations such as the ISS; scientific satellites like the Hubble; Earth observation satellites from companies like Planet Labs, Umbra, and HawkEye 360; GPS; miniature CubeSats for education and research; and military/defense satellites.

Loading next visibility...
Identifier
27944, 2003-042F
Orbit
SSO
Country
Flag of CISCIS
Related business
Manufacturer
NII KP
Mission
Operational Defense Calibration
Bus & Motor
Unknown
Mass
~10 kg wet, ~10 kg dry
Launch date (UTC)
2003-09-27 (22 years ago)
Launch vehicle
KOSMOS 11K65M
Launch site
Plesetsk Missile And Space Complex (PKMTR)
Object type
Payload
Rocket body
Debris
Shape & HBR
Sphere, 0.1 m
Radar Cross Section
0.031 m², Medium (>0.1 m² and < 1m²)

Expand to show TLE details & history
Last TLE update: 12 hours ago

TLE from 12 hours ago
0 LARETS
1 27944U 03042F   25260.92893980  .00000070  00000-0  23001-4 0  9995
2 27944  98.3819  52.9668 0012651 160.5108 199.6580 14.63784288173536
Epoch: 2025-09-17T22:17Z
TLE epoch observation values (Epoch: 2025-09-17T22:17:40.398Z)
Latitude
-0.00001°
Longitude
81.45063°
Altitude
692.379 km
Speed
7.506 km/s
True Right ascension
03h 31m 52s
True Declination
0° 00' 00"
Sunlit
Object was in full shadow at epoch
Visualization orbit readout
Latitude
Unknown
Longitude
Unknown
Altitude
Unknown
Speed
Unknown
Apparent Right ascension
Unknown
Apparent Declination
Unknown
Sunlit
N/A
Visualization observer readout
Local Sidereal Time
02:42:02
Azimuth
Unknown
Elevation
Unknown
Doppler factor
Unknown
Orbital elements
Apogee altitude
686.993 km
Perigee altitude
669.139 km
Semi-major axis
7,056.203 km
Eccentricity
0.00127
Inclination
98.3819°
RAAN
52.9668°
Arg. of periapsis
160.5108°
True anomaly
199.6093°
Mean anomaly
199.658°
Eccentric anomaly
199.63364°
Mean motion
3.66173 °/min
Orbital period
98.31 mins
BSTAR
0.000023001
Loading maneuver chart data...
Computing Atmospheric mass density...
Loading historical data...
Loading historical data...
Loading historical data...
Loading historical data...
Loading historical data...
Loading historical data...
Loading historical data...

Documentation

Showing up to 5 results
|